When you browse on this site, cookies collect data to enhance your experience and personalize the content and advertising you see.
Visit our Privacy Policy to learn more. By continuing to use the site, you agree to this use of cookies and data.
  • In Czech Republic
  • List of Countries
  • For 7 days
  • Water Temperature
  • Weather Map
  • Weather Widgets
  • user-avatar
    Login

    Hourly Weather Trujillo

    Today, 7 June, Sunday

    Time Temperature Precipitation Wind Pressure Humidity
    00:00 +29°C° 0.3 mm 1 mps 759 mmHg 87%
    01:00 +29°C° 0 mm 1 mps 758 mmHg 87%
    02:00 +29°C° 0 mm 1 mps 758 mmHg 86%
    03:00 +29°C° 0 mm 2 mps 757 mmHg 85%
    04:00 +29°C° 0 mm 1 mps 758 mmHg 85%
    05:00 +29°C° 0 mm 1 mps 758 mmHg 84%
    06:00 +29°C° 0 mm 1 mps 758 mmHg 83%
    07:00 +32°C° 0 mm 1 mps 758 mmHg 71%
    08:00 +35°C° 0 mm 1 mps 758 mmHg 59%
    09:00 +36°C° 0 mm 0 mps 759 mmHg 47%
    10:00 +40°C° 0 mm 1 mps 758 mmHg 44%
    11:00 +41°C° 0 mm 2 mps 758 mmHg 41%
    12:00 +42°C° 0 mm 3 mps 758 mmHg 38%
    13:00 +39°C° 0.3 mm 3 mps 757 mmHg 47%
    14:00 +37°C° 0.3 mm 3 mps 756 mmHg 55%
    15:00 +35°C° 0.3 mm 3 mps 756 mmHg 63%
    16:00 +34°C° 0.4 mm 2 mps 756 mmHg 68%
    17:00 +34°C° 0.4 mm 2 mps 756 mmHg 72%
    18:00 +32°C° 0.4 mm 1 mps 756 mmHg 76%
    19:00 +31°C° 0 mm 2 mps 757 mmHg 80%
    20:00 +30°C° 0 mm 2 mps 757 mmHg 83%
    21:00 +29°C° 0 mm 2 mps 758 mmHg 87%
    22:00 +29°C° 0 mm 2 mps 758 mmHg 87%
    23:00 +29°C° 0 mm 2 mps 758 mmHg 87%

    Tomorrow, 8 June, Monday

    Time Temperature Precipitation Wind Pressure Humidity
    00:00 +28°C° 0 mm 2 mps 758 mmHg 87%
    01:00 +28°C° 0 mm 2 mps 757 mmHg 87%
    02:00 +28°C° 0 mm 2 mps 757 mmHg 86%
    03:00 +28°C° 0 mm 2 mps 757 mmHg 86%
    04:00 +28°C° 0 mm 2 mps 757 mmHg 85%
    05:00 +28°C° 0 mm 2 mps 757 mmHg 83%
    06:00 +29°C° 0 mm 2 mps 757 mmHg 82%
    07:00 +32°C° 0 mm 2 mps 758 mmHg 70%
    08:00 +36°C° 0 mm 2 mps 758 mmHg 58%
    09:00 +39°C° 0 mm 2 mps 758 mmHg 47%
    10:00 +42°C° 0 mm 3 mps 758 mmHg 42%
    11:00 +44°C° 0 mm 4 mps 758 mmHg 37%
    12:00 +47°C° 0 mm 5 mps 757 mmHg 32%
    13:00 +45°C° 0 mm 5 mps 757 mmHg 38%
    14:00 +42°C° 0 mm 6 mps 756 mmHg 44%
    15:00 +39°C° 0 mm 7 mps 756 mmHg 50%
    16:00 +38°C° 0 mm 7 mps 756 mmHg 56%
    17:00 +36°C° 0 mm 7 mps 756 mmHg 63%
    18:00 +35°C° 0 mm 7 mps 756 mmHg 69%
    19:00 +34°C° 0 mm 7 mps 757 mmHg 71%
    20:00 +33°C° 0 mm 6 mps 757 mmHg 74%
    21:00 +32°C° 0 mm 5 mps 758 mmHg 76%
    22:00 +30°C° 0 mm 5 mps 758 mmHg 77%
    23:00 +30°C° 0 mm 4 mps 758 mmHg 78%

    Day after tomorrow, 9 June, Tuesday

    Time Temperature Precipitation Wind Pressure Humidity
    00:00 +29°C° 0 mm 4 mps 758 mmHg 79%
    01:00 +29°C° 0 mm 4 mps 757 mmHg 80%
    02:00 +29°C° 0 mm 3 mps 757 mmHg 81%
    03:00 +28°C° 0 mm 3 mps 757 mmHg 82%
    04:00 +28°C° 0 mm 3 mps 757 mmHg 81%
    05:00 +29°C° 0 mm 3 mps 757 mmHg 80%
    06:00 +29°C° 0 mm 3 mps 757 mmHg 80%
    07:00 +32°C° 0 mm 2 mps 757 mmHg 68%
    08:00 +36°C° 0 mm 2 mps 758 mmHg 56%
    09:00 +39°C° 0 mm 2 mps 758 mmHg 44%
    10:00 +42°C° 0 mm 3 mps 758 mmHg 39%
    11:00 +43°C° 0 mm 4 mps 757 mmHg 35%
    12:00 +46°C° 0 mm 5 mps 757 mmHg 31%
    13:00 +43°C° 0 mm 5 mps 757 mmHg 36%
    14:00 +42°C° 0 mm 6 mps 756 mmHg 41%
    15:00 +40°C° 0 mm 7 mps 756 mmHg 45%
    16:00 +38°C° 0.1 mm 7 mps 756 mmHg 54%
    17:00 +35°C° 0.1 mm 8 mps 756 mmHg 63%
    18:00 +33°C° 0.1 mm 8 mps 756 mmHg 73%
    19:00 +32°C° 0.1 mm 7 mps 757 mmHg 76%
    20:00 +30°C° 0.1 mm 7 mps 758 mmHg 79%
    21:00 +29°C° 0.1 mm 6 mps 758 mmHg 82%
    22:00 +29°C° 0 mm 5 mps 758 mmHg 82%
    23:00 +29°C° 0 mm 5 mps 758 mmHg 83%

    10 June, Wednesday

    Time Temperature Precipitation Wind Pressure Humidity
    00:00 +28°C° 0 mm 4 mps 758 mmHg 84%
    01:00 +28°C° 0 mm 4 mps 758 mmHg 84%
    02:00 +28°C° 0 mm 4 mps 757 mmHg 85%
    03:00 +27°C° 0 mm 3 mps 757 mmHg 86%
    04:00 +27°C° 0 mm 3 mps 757 mmHg 85%
    05:00 +28°C° 0 mm 3 mps 758 mmHg 84%
    06:00 +28°C° 0 mm 3 mps 758 mmHg 83%
    07:00 +31°C° 0 mm 3 mps 758 mmHg 69%
    08:00 +36°C° 0 mm 2 mps 758 mmHg 56%
    09:00 +39°C° 0 mm 2 mps 759 mmHg 42%
    10:00 +40°C° 0 mm 3 mps 758 mmHg 40%
    11:00 +41°C° 0 mm 4 mps 758 mmHg 37%
    12:00 +42°C° 0 mm 5 mps 758 mmHg 35%
    13:00 +41°C° 0.2 mm 6 mps 757 mmHg 41%
    14:00 +39°C° 0.2 mm 6 mps 757 mmHg 48%
    15:00 +38°C° 0.2 mm 7 mps 756 mmHg 54%
    16:00 +35°C° 1.4 mm 7 mps 757 mmHg 63%
    17:00 +33°C° 1.4 mm 7 mps 757 mmHg 71%
    18:00 +30°C° 1.4 mm 7 mps 757 mmHg 80%
    19:00 +29°C° 0.5 mm 7 mps 758 mmHg 84%
    20:00 +28°C° 0.5 mm 7 mps 759 mmHg 89%
    21:00 +28°C° 0.5 mm 6 mps 759 mmHg 93%
    22:00 +27°C° 0.1 mm 6 mps 759 mmHg 95%
    23:00 +27°C° 0.1 mm 5 mps 759 mmHg 97%

    11 June, Thursday

    Time Temperature Precipitation Wind Pressure Humidity
    00:00 +26°C° 0.1 mm 5 mps 759 mmHg 98%
    01:00 +26°C° 0 mm 5 mps 759 mmHg 98%
    02:00 +26°C° 0 mm 4 mps 758 mmHg 98%
    03:00 +26°C° 0 mm 4 mps 758 mmHg 98%
    04:00 +26°C° 0 mm 3 mps 758 mmHg 97%
    05:00 +26°C° 0 mm 3 mps 759 mmHg 95%
    06:00 +26°C° 0 mm 2 mps 759 mmHg 94%
    07:00 +29°C° 0 mm 2 mps 759 mmHg 80%
    08:00 +32°C° 0 mm 2 mps 760 mmHg 66%
    09:00 +35°C° 0 mm 2 mps 760 mmHg 52%
    10:00 +36°C° 0 mm 3 mps 760 mmHg 51%
    11:00 +36°C° 0 mm 4 mps 759 mmHg 50%
    12:00 +37°C° 0 mm 5 mps 759 mmHg 48%
    13:00 +35°C° 0.4 mm 5 mps 759 mmHg 56%
    14:00 +34°C° 0.4 mm 5 mps 758 mmHg 64%
    15:00 +33°C° 0.4 mm 5 mps 758 mmHg 72%
    16:00 +32°C° 0.4 mm 4 mps 758 mmHg 78%
    17:00 +29°C° 0.4 mm 4 mps 758 mmHg 83%
    18:00 +28°C° 0.4 mm 3 mps 759 mmHg 89%
    19:00 +27°C° 0.1 mm 3 mps 759 mmHg 91%
    20:00 +27°C° 0.1 mm 3 mps 760 mmHg 93%
    21:00 +26°C° 0.1 mm 2 mps 760 mmHg 95%
    22:00 +26°C° 0 mm 2 mps 760 mmHg 95%
    23:00 +26°C° 0 mm 2 mps 760 mmHg 96%

    12 June, Friday

    Time Temperature Precipitation Wind Pressure Humidity
    00:00 +26°C° 0 mm 2 mps 760 mmHg 96%
    01:00 +25°C° 0 mm 1 mps 759 mmHg 97%
    02:00 +25°C° 0 mm 1 mps 759 mmHg 97%
    03:00 +25°C° 0 mm 1 mps 759 mmHg 97%
    04:00 +25°C° 0 mm 1 mps 759 mmHg 96%
    05:00 +25°C° 0 mm 1 mps 759 mmHg 95%
    06:00 +25°C° 0 mm 1 mps 759 mmHg 94%
    07:00 +28°C° 0 mm 1 mps 760 mmHg 81%
    08:00 +31°C° 0 mm 1 mps 760 mmHg 68%
    09:00 +32°C° 0 mm 0 mps 760 mmHg 55%
    10:00 +34°C° 0 mm 1 mps 760 mmHg 54%
    11:00 +34°C° 0 mm 1 mps 760 mmHg 53%
    12:00 +35°C° 0 mm 2 mps 759 mmHg 52%
    13:00 +35°C° 0.1 mm 2 mps 759 mmHg 54%
    14:00 +35°C° 0.1 mm 2 mps 758 mmHg 56%
    15:00 +34°C° 0.1 mm 2 mps 757 mmHg 57%
    16:00 +32°C° 0.1 mm 2 mps 758 mmHg 64%
    17:00 +30°C° 0.1 mm 2 mps 758 mmHg 71%
    18:00 +29°C° 0.1 mm 1 mps 758 mmHg 78%
    19:00 +28°C° 0 mm 1 mps 759 mmHg 82%
    20:00 +27°C° 0 mm 1 mps 759 mmHg 86%
    21:00 +26°C° 0 mm 1 mps 760 mmHg 90%
    22:00 +26°C° 0 mm 1 mps 760 mmHg 91%
    23:00 +26°C° 0 mm 1 mps 759 mmHg 92%
    Show more